Dewpoint
49 50 50 51 50 49 50 51 50 51 51 51 50 50 50 50 50 50 50 49 50 49 49 50 50 49 49 50 50 50 52 45 44 42 40 44 43 49 53 55 54 49 53 28 23 21 21 25 27 26 18 16 14 9 5 3 2 8 13 11 9 7 5 6 6 8 8 6 4 1 7 16 14 12 3 -2 -7 -6 -2 3 2 5 8 10 12 62 62 64
50 50 51 51 51 51 50 51 51 51 51 50 49 49 50 50 50 50 50 50 49 49 49 50 49 50 49 50 50 51 48 44 42 42 41 53 51 49 51 49 49 53 45 25 24 25 27 26 24 19 16 13 14 9 5 2 1 1 8 9 6 5 6 5 4 5 5 6 9 21 19 18 16 17 15 13 -4 5 -5 -2 3 3 5 6 58 60 61 63
50 50 50 50 50 50 50 50 50 50 51 50 49 49 50 50 49 50 50 49 50 49 49 49 49 50 50 49 50 51 47 43 43 40 49 56 55 49 51 48 50 51 37 25 29 35 34 28 18 13 14 13 11 6 5 2 -1 -0 4 6 7 7 7 9 10 8 6 12 21 20 21 21 19 17 15 10 10 8 8 -3 2 3 5 23 60 60 62 65
51 51 50 50 49 50 51 51 51 51 51 50 49 50 50 50 50 49 50 50 49 49 49 49 49 50 49 49 51 48 45 43 37 43 48 56 55 52 53 49 51 48 37 32 35 35 29 21 17 17 15 12 11 7 4 3 -1 -1 3 4 6 7 5 3 2 1 3 21 20 20 20 19 18 17 15 13 11 8 6 -2 1 4 4 50 62 63 65 67
51 51 50 49 49 49 50 50 50 50 50 50 50 50 50 50 50 50 50 50 49 49 50 49 49 49 49 49 51 46 42 39 36 42 47 54 55 56 55 55 52 39 31 29 32 34 26 19 18 15 13 11 9 6 2 2 0 0 3 4 2 -0 1 4 2 -1 -0 16 19 19 19 18 19 18 16 14 11 8 4 -7 5 7 5 30 61 61 62 64
49 50 49 50 49 50 50 51 51 50 50 50 50 50 51 51 51 50 50 51 49 49 50 49 49 49 49 51 47 44 42 27 37 38 49 51 52 51 53 53 57 49 39 36 35 35 27 18 15 14 13 11 8 5 2 1 1 1 2 2 3 1 -2 -2 -1 0 -4 14 18 17 18 19 17 17 16 15 14 15 11 12 16 10 17 21 53 55 62 63
50 50 49 49 50 50 50 50 49 49 50 51 51 51 51 51 50 50 49 49 50 49 50 49 49 49 49 51 45 44 41 39 36 39 51 49 47 49 49 52 53 39 34 36 38 33 22 20 18 14 13 13 11 5 4 2 2 2 2 4 1 -1 -0 -0 -3 -3 -2 14 17 17 13 11 13 14 15 13 13 14 14 15 17 17 14 17 19 28 58 61
50 50 50 49 49 50 49 49 50 49 50 50 50 50 50 50 50 50 50 49 50 50 49 49 49 49 50 44 43 40 39 39 38 40 49 49 42 39 43 32 32 36 30 29 29 27 22 17 16 15 14 12 10 7 4 1 -0 -0 3 4 2 -0 4 4 1 2 6 13 15 15 12 6 7 8 9 9 8 8 8 9 13 14 14 17 18 18 55 60
49 49 49 49 49 50 50 50 50 50 50 50 50 50 50 50 50 50 50 50 50 49 49 49 49 49 50 47 43 39 30 29 36 36 39 37 32 31 32 29 28 33 36 32 28 25 23 19 16 15 12 11 9 7 8 2 -0 -0 2 -0 0 5 10 8 5 4 10 13 12 9 7 5 3 -1 -2 2 3 3 3 3 6 10 12 14 13 21 26 56
49 48 48 49 49 49 49 49 49 49 50 50 50 50 50 50 50 50 50 50 50 50 50 49 50 49 47 43 40 34 29 31 30 30 34 30 28 28 28 25 24 30 30 28 28 26 22 19 15 15 15 13 13 12 12 6 5 5 4 8 7 8 8 6 -1 3 12 11 9 6 3 1 0 -2 -6 -3 0 -1 -1 -0 2 3 10 11 12 20 33 31
49 49 49 48 49 48 49 49 49 49 50 50 50 50 50 50 50 50 50 50 51 50 50 50 50 49 44 44 40 34 34 34 31 29 28 28 27 27 25 25 25 26 26 25 26 26 24 20 17 17 16 13 11 9 9 9 10 9 6 3 6 8 8 9 8 10 10 8 6 4 2 2 1 -2 -4 -4 -3 -3 -3 -2 -1 -0 3 8 11 16 18 22
50 48 48 48 48 48 48 49 49 50 50 50 50 50 50 50 51 51 51 51 51 51 50 49 49 48 45 43 39 36 36 34 32 30 30 29 28 27 27 27 28 27 27 25 24 26 26 22 20 18 13 12 8 6 7 9 6 6 6 4 6 7 6 7 7 8 9 5 3 2 0 -1 -2 -2 -1 -1 -2 -2 -2 -2 -1 -0 2 5 9 15 23 22
49 49 48 48 48 48 48 49 49 50 50 50 50 51 51 51 52 52 52 52 51 51 50 49 49 47 45 41 39 38 32 30 31 32 32 32 32 29 28 28 28 28 28 27 25 25 25 22 21 19 17 15 12 9 6 11 8 9 9 7 7 5 3 3 2 2 1 1 1 0 -3 -3 -3 -2 -2 -2 -2 -2 -3 -3 -4 -2 2 3 7 13 18 22
48 48 48 48 48 48 48 49 49 50 50 50 50 51 51 51 52 52 52 52 52 52 51 50 49 45 44 40 36 33 29 30 31 30 31 33 31 29 30 30 29 28 26 26 25 25 24 23 23 21 21 18 14 13 11 9 9 9 10 9 8 6 3 2 -0 -1 -1 0 0 -0 -1 -3 -4 -4 -4 -2 -3 -3 -3 -4 -4 -6 -4 2 3 11 14 13
48 48 48 48 47 47 48 49 49 50 50 50 50 51 51 51 52 52 51 51 53 52 51 51 47 45 42 39 40 37 44 29 30 31 31 32 29 29 29 27 24 24 24 24 22 23 23 24 24 21 19 19 16 12 9 9 9 8 7 6 6 4 2 0 -0 -2 -3 -2 -2 -2 -1 -3 -3 -5 -6 -7 -6 -3 -2 -2 -2 -3 -5 -0 3 9 8 14
48 48 48 47 47 48 48 48 49 50 50 50 51 51 51 51 51 51 51 51 53 53 49 47 47 44 38 36 33 44 31 28 30 32 31 28 28 27 28 27 26 25 25 24 24 22 22 22 20 19 18 18 15 13 11 9 7 6 5 4 2 1 -1 -2 -3 -5 -6 -6 -5 -4 -4 -3 -4 -5 -6 -7 -7 -8 -3 -0 3 -2 -3 -2 5 6 9 14
49 49 47 47 47 48 48 49 49 49 50 50 50 51 50 50 51 50 50 53 50 47 47 44 43 42 38 32 34 31 30 31 30 30 29 29 27 26 26 25 26 25 25 26 25 24 22 21 22 21 19 17 16 13 11 11 9 6 4 4 2 -1 -2 -4 -4 -5 -9 -7 -7 -4 -3 -2 -2 -3 -5 -4 -5 -5 -4 3 5 5 2 10 4 10 11 15
49 48 47 47 47 48 48 49 49 50 50 50 50 50 49 51 51 49 50 49 44 44 44 43 38 37 36 37 29 23 26 25 28 28 28 28 27 28 27 25 26 24 25 23 25 23 23 21 21 19 18 18 16 13 12 10 11 10 9 7 3 0 0 -3 -6 -8 -10 -6 -4 -1 -1 -1 -2 -4 -4 -3 -1 1 3 1 2 5 9 3 -1 8 12 15
49 48 47 48 47 48 48 49 49 50 50 50 50 50 51 51 48 45 43 43 41 42 40 39 37 35 23 24 25 26 27 28 28 28 28 27 28 29 29 28 27 25 24 22 24 23 24 22 22 20 18 18 16 13 10 10 9 7 5 4 3 4 2 0 -3 -5 -6 -2 -0 1 2 1 2 0 -4 -3 -2 -1 0 6 6 6 4 14 9 8 16 20
48 47 47 48 47 48 48 49 50 50 50 49 45 46 48 43 42 45 41 40 36 32 30 28 35 30 27 26 26 27 29 28 26 25 25 28 27 25 25 26 25 25 23 22 22 23 23 23 22 21 19 18 17 15 14 12 11 9 8 6 3 1 2 2 0 2 -1 -1 0 3 5 4 4 5 3 -0 1 1 1 5 6 7 8 8 6 5 12 23
49 47 47 47 47 48 48 49 49 50 50 47 46 44 32 33 31 31 34 34 32 31 27 24 27 26 25 26 27 26 26 26 26 27 26 28 26 27 25 25 24 23 23 23 22 24 24 23 23 22 21 20 22 18 16 14 14 13 11 10 8 8 6 6 4 5 5 4 2 3 -1 -5 -4 5 5 4 2 -3 -2 4 7 7 7 12 12 11 10 19
48 48 47 48 48 48 49 49 49 49 49 47 45 34 32 34 35 36 36 32 33 33 33 26 27 27 27 27 28 28 29 25 25 27 29 28 25 26 26 25 24 23 24 24 24 26 24 22 21 22 22 26 23 21 20 17 15 14 13 13 11 10 8 7 6 5 7 7 6 5 3 3 3 2 5 8 3 3 1 1 4 8 9 9 10 12 18 19
48 48 49 48 49 49 48 49 49 48 47 46 41 31 32 34 37 37 39 36 34 35 32 29 26 26 26 24 27 28 25 23 25 24 26 27 27 26 26 25 26 25 26 29 29 30 28 25 22 23 26 31 27 20 22 25 19 16 15 14 12 11 10 9 8 10 9 6 5 5 4 6 5 1 6 9 6 4 1 -1 -1 -0 7 11 12 14 17 17
48 48 48 49 49 49 49 49 48 47 46 44 38 34 34 34 36 38 39 36 32 32 32 27 26 24 25 25 28 27 26 27 26 26 30 29 27 28 27 26 25 23 23 24 24 24 25 25 31 33 27 24 25 27 21 23 23 18 16 16 13 12 12 11 11 12 10 8 7 6 7 6 7 4 0 8 9 6 2 -0 -1 2 3 15 20 20 21 23
48 48 49 49 49 50 49 49 46 45 39 37 32 36 35 36 39 40 38 36 35 33 22 23 28 28 31 29 28 28 28 27 27 28 30 29 28 28 27 28 26 24 23 23 24 22 23 23 26 28 31 26 28 27 22 24 25 22 17 16 14 13 14 12 12 12 13 12 11 10 8 6 8 6 5 1 6 7 5 4 0 1 0 2 7 20 21 23
48 48 48 49 50 49 49 49 39 37 38 35 36 37 38 36 40 41 40 34 29 28 26 26 30 31 32 27 28 26 28 27 30 30 31 31 31 29 29 27 27 25 26 27 26 27 25 28 26 25 25 26 26 25 23 24 26 21 17 19 18 21 22 16 14 13 12 11 11 12 10 9 9 8 8 7 5 8 9 9 5 2 -2 -4 0 6 15 23
48 48 48 49 49 49 45 38 41 43 34 34 36 39 38 37 44 42 39 34 26 25 25 27 28 35 33 30 28 28 26 31 29 30 31 33 29 30 27 27 27 28 28 30 27 26 26 26 24 24 23 24 27 25 23 25 27 22 20 21 19 20 19 19 19 16 16 15 12 12 9 9 8 9 10 8 8 4 7 8 7 2 1 -2 1 3 14 22
48 48 48 49 49 49 46 47 45 39 35 37 39 39 38 41 42 42 38 26 25 26 30 29 32 34 35 32 29 25 26 27 28 36 35 32 32 31 28 27 27 27 29 34 26 27 26 24 23 24 22 22 21 23 23 23 22 20 24 22 26 24 22 21 19 17 15 14 14 13 13 11 10 11 9 8 5 5 5 5 4 2 2 2 6 2 7 18
48 48 48 48 49 49 50 47 45 41 36 36 39 40 40 45 43 40 32 24 33 28 31 32 33 33 28 25 24 24 25 27 29 38 36 33 33 31 30 30 29 28 28 27 26 27 26 25 27 26 29 30 26 25 26 32 25 22 22 22 21 22 21 20 18 16 15 16 14 12 12 11 10 11 7 8 7 7 6 1 -6 3 4 2 2 6 9 13
48 47 48 48 48 50 51 49 47 42 35 38 41 41 44 45 40 35 30 17 27 22 28 29 30 28 26 27 26 29 30 29 35 30 28 42 35 34 35 37 30 30 30 30 33 28 29 37 40 35 35 24 24 22 21 27 22 22 23 22 21 20 21 21 21 17 16 15 16 13 12 11 8 7 6 7 6 7 4 2 -0 5 5 4 8 6 11 11
47 47 47 48 45 42 44 43 40 34 36 43 43 43 45 42 35 29 16 19 26 30 25 29 26 26 25 27 26 29 27 29 29 26 31 39 42 40 39 35 32 31 30 30 30 33 31 33 34 34 32 25 23 21 22 21 21 22 22 21 20 19 19 20 19 20 18 14 13 13 12 12 10 8 9 6 7 6 6 6 5 7 4 3 9 7 9 10
47 47 47 48 45 44 43 42 38 37 39 45 45 44 41 33 35 15 17 18 21 26 25 24 27 25 26 27 29 28 27 26 33 30 31 30 29 29 38 31 35 27 25 28 27 28 24 25 31 31 38 37 25 22 20 19 19 20 22 22 21 18 21 16 17 15 14 16 14 12 10 7 8 11 5 2 3 3 4 -3 1 -2 -1 8 4 6 10 11
46 46 48 48 45 45 45 42 42 42 42 44 45 42 37 30 14 18 17 18 24 27 24 25 25 25 28 29 28 27 28 28 29 30 30 30 29 30 38 35 38 35 25 28 25 21 21 23 27 28 34 40 28 21 22 20 22 24 21 22 20 17 15 13 14 13 12 12 13 13 11 7 9 10 4 3 4 4 4 7 6 4 10 11 7 9 15 21
46 47 47 46 46 45 44 47 40 39 43 45 42 41 34 26 17 25 18 21 25 27 27 26 26 26 28 26 28 30 28 32 30 30 29 30 28 32 35 37 36 34 31 28 23 24 20 19 24 20 23 32 27 24 23 21 24 21 21 19 18 19 16 11 9 5 5 4 3 1 -2 2 -0 3 0 1 1 5 2 1 7 9 5 12 10 9 9 14
46 49 50 50 48 47 51 34 39 42 45 45 40 37 26 17 16 20 18 24 25 27 26 27 26 26 27 29 30 30 31 29 30 30 27 28 29 28 30 33 32 30 31 25 28 26 22 20 22 20 18 25 24 26 24 30 23 18 18 20 20 18 21 15 16 14 13 12 12 11 12 9 7 7 7 5 2 -0 1 0 8 6 4 6 9 15 12 14
47 49 49 48 41 34 32 37 37 41 42 41 37 15 16 18 19 22 22 25 26 27 28 27 26 25 26 26 30 30 30 30 29 28 28 28 28 31 33 33 32 32 30 26 28 25 22 21 22 21 20 22 21 17 18 17 16 22 19 16 17 19 18 18 21 21 19 15 11 15 11 8 8 7 7 8 7 6 6 0 1 2 3 11 9 12 14 13
44 49 47 45 38 30 32 33 36 39 41 39 33 12 19 18 18 20 25 26 28 29 29 25 26 26 27 27 28 30 29 31 28 28 27 29 27 31 32 35 34 36 34 32 29 29 25 24 24 22 19 19 21 19 14 20 17 21 13 15 17 22 19 18 14 15 12 9 11 10 7 6 4 7 6 6 7 6 7 7 1 5 8 7 10 20 22 17
46 47 48 47 37 31 32 36 39 41 40 38 32 23 18 18 19 25 26 28 27 30 27 26 27 29 27 27 28 30 31 30 29 29 27 28 26 35 32 32 38 35 36 35 30 29 30 24 23 20 19 18 22 20 14 13 11 13 11 21 13 15 13 17 16 12 11 10 9 9 8 8 6 8 9 14 17 11 9 8 7 3 6 7 10 18 24 23
47 46 42 34 34 31 34 39 40 39 38 36 22 20 20 22 23 26 29 28 29 29 27 28 28 29 28 28 30 31 33 30 30 28 27 28 25 31 32 34 35 36 35 32 32 32 33 26 23 21 20 22 20 21 16 15 13 11 10 10 14 15 17 17 18 14 15 13 12 9 10 12 13 21 34 34 34 32 10 8 10 3 6 11 12 17 23 26
46 43 38 39 33 39 38 41 40 39 37 14 20 24 22 26 23 24 24 27 29 27 28 29 30 29 30 31 32 31 33 31 30 29 28 28 27 29 35 37 35 37 33 33 31 32 31 32 23 23 22 22 21 21 18 15 15 13 9 10 9 15 18 14 19 16 17 17 17 17 17 18 28 39 35 30 30 30 36 25 17 13 13 16 20 25 28 28
47 43 29 38 38 41 40 40 38 20 23 24 21 24 20 23 25 26 25 27 27 30 29 29 29 30 30 29 30 33 32 31 31 28 27 27 31 27 34 35 38 37 35 33 32 38 31 28 25 25 24 23 23 21 17 12 13 14 17 14 10 12 16 14 14 15 14 15 16 16 16 21 25 27 25 26 34 35 34 39 20 16 15 19 25 27 31 31
44 30 31 44 45 42 37 30 19 26 26 23 23 24 26 31 26 24 24 25 28 28 30 30 31 31 29 29 33 33 33 31 31 29 27 28 28 28 33 37 38 40 35 32 33 34 34 33 30 25 23 22 24 25 24 17 18 15 13 16 15 16 15 14 13 16 18 19 22 24 23 23 29 38 41 40 37 35 38 41 43 22 23 27 25 27 32 33
34 33 47 45 45 40 30 19 23 25 25 26 26 21 27 27 26 26 25 26 30 29 30 29 30 30 31 31 34 32 33 31 32 30 29 28 28 29 33 36 36 35 31 32 32 32 35 31 26 25 25 25 29 25 25 24 23 23 19 18 17 18 20 21 19 19 20 21 22 22 22 23 35 44 45 45 46 44 43 45 42 42 22 28 29 30 30 33
39 38 34 40 43 39 24 21 21 23 27 30 30 21 27 30 29 28 28 27 31 30 29 29 30 32 31 32 32 32 35 30 32 29 29 29 29 29 34 35 35 32 32 33 34 37 31 30 29 26 24 23 26 30 28 31 29 29 25 23 21 19 19 21 21 22 21 21 22 21 18 22 42 42 39 42 43 45 45 44 44 45 33 31 28 28 30 34
42 41 33 29 33 36 27 27 26 26 27 29 30 26 27 29 29 31 31 29 30 29 30 29 30 31 32 33 32 33 37 32 31 33 32 31 32 32 32 34 35 33 35 38 39 38 34 32 31 25 22 20 20 21 24 27 29 32 29 27 27 26 26 25 23 22 21 24 23 22 22 26 33 40 42 43 42 43 45 44 45 45 35 30 32 32 32 34
31 26 30 28 28 28 28 30 31 31 30 31 27 26 27 28 28 29 30 31 30 31 30 29 30 32 32 32 32 33 33 36 34 32 33 33 33 31 33 33 35 35 40 42 41 40 35 34 32 32 30 28 29 31 34 36 32 29 30 30 30 30 30 29 29 27 24 25 25 27 28 27 29 34 40 41 41 40 39 46 45 46 39 32 34 34 34 34
31 27 30 25 31 23 25 25 30 32 29 31 24 27 28 29 28 28 31 29 30 31 31 31 31 32 31 32 32 32 34 34 35 33 33 32 33 33 33 35 38 39 42 41 41 40 36 33 33 33 33 32 34 33 35 34 32 30 29 31 32 33 35 34 31 27 29 29 25 29 30 30 30 33 36 39 39 39 39 42 46 45 34 31 34 35 37 33
24 27 35 38 35 29 28 28 31 32 30 31 25 29 30 28 28 27 30 30 30 32 31 31 32 31 31 32 33 32 33 33 33 32 34 33 34 34 32 34 38 39 39 37 36 36 36 32 33 34 32 31 34 34 33 31 31 31 31 34 35 36 35 33 33 34 34 31 27 31 32 31 31 33 35 40 43 43 42 42 45 51 33 32 32 31 32 38
33 30 32 37 32 33 34 32 32 27 26 26 22 31 30 27 27 29 29 30 31 31 32 30 31 29 32 33 34 32 32 30 30 34 34 34 34 34 33 34 38 39 36 34 35 37 36 32 33 32 30 32 34 34 33 33 34 35 35 36 36 35 34 34 33 35 35 33 34 34 35 34 34 34 35 40 44 43 42 44 49 49 42 29 29 31 31 49
35 34 29 35 38 35 33 33 32 27 25 25 22 30 29 28 27 29 30 29 28 32 32 32 31 31 33 34 34 32 32 32 33 32 35 36 35 35 34 34 33 35 34 35 35 35 36 31 34 32 33 32 34 35 36 36 36 34 35 36 35 34 34 34 34 34 34 33 34 34 34 34 34 35 35 37 41 42 45 48 49 51 49 42 33 35 37 52
38 41 39 35 34 33 34 32 27 26 21 24 25 30 31 27 28 30 30 31 31 30 31 31 32 34 34 34 33 32 33 33 34 35 36 35 34 36 36 35 34 34 35 36 36 36 37 33 33 34 31 30 34 35 36 37 35 34 33 34 34 33 32 33 33 33 32 32 34 35 33 33 34 36 38 42 43 46 48 48 46 44 48 45 42 39 40 46
38 40 42 37 33 34 32 27 27 25 25 28 31 31 29 28 29 31 29 31 31 32 32 33 35 34 33 32 33 33 35 35 35 36 35 34 36 35 35 35 35 35 35 36 37 35 36 35 32 32 30 29 32 33 34 35 34 32 32 33 34 34 34 34 35 35 34 34 32 31 31 34 40 40 40 44 48 48 47 52 53 51 45 43 47 47 44 49